BSAT-4B

Last updated on Thu Nov 21 2024 00:02:44 GMT+0000 (Coordinated Universal Time)

1 46112U 20056A 24325.55958377 -.00000349 00000+0 00000+0 0 9997 2 46112 0.0620 121.3631 0002712 65.8551 184.1486 1.00272309 15634
UTC large
Height (km)
Speed (km/s)
/
Latitude / Longitude
Inclination (degrees)
Orbital Period (minutes)
Azimuth
Elevation
Range (km)
Doppler Factor

Next 0 passes for location: London (51.5072 / 0.1276)

Sorry there are no passes over London.